Chipley, FL

9:27 PM CST on December 10, 2017 (GMT -0600)
Chipley

Weather History for KVSH - September, 2013

Change the Weather History Date:

Tuesday, September 3, 2013

  Actual Average (KDHN) Record (KDHN)
Temperature  
Mean Temperature 84 °F -  
Max Temperature 93 °F 88 °F 100 °F (1940)
Min Temperature 75 °F 70 °F 60 °F (1952)
Cooling Degree Days 19    
Growing Degree Days 34 (Base 50)    
Moisture  
Dew Point 73 °F    
Average Humidity 69    
Maximum Humidity 79    
Minimum Humidity 46    
Precipitation  
Precipitation 0.44 in - - ()
Sea Level Pressure  
Sea Level Pressure 29.95 in    
Wind  
Wind Speed 3 mph (WSW)    
Max Wind Speed 14 mph    
Max Gust Speed 20 mph    
Visibility 10 miles    
Events      
Averages and records for this station are not official NWS values.
T = Trace of Precipitation, MM = Missing Value Source: NWS Daily Summary

Daily Weather History Graph

Daily Weather History Graph

Search for Another Location

Airport or City:

Trip Planner

Search our weather history database for the weather conditions in past years. The results will help you decide how hot, cold, wet, or windy it might be!

Date:

Astronomy

Sep. 03, 2013 Rise Set
Actual Time 6:20 AM CDT 7:02 PM CDT
Civil Twilight 5:55 AM CDT 7:27 PM CDT
Nautical Twilight 5:26 AM CDT 7:55 PM CDT
Astronomical Twilight 4:57 AM CDT 8:25 PM CDT
Moon 4:36 AM CDT (9/3) 5:48 PM CDT (9/3)
Length of Visible Light 13h 31m
Length of Day
12h 42m
Waning Crescent, 3% of the Moon is Illuminated
Sep 3
Waning Crescent
Sep 5
New
Sep 12
First Quarter
Sep 19
Full
Sep 26
Last Quarter

Hourly Weather History & Observations

Time (CDT) Temp. Heat Index Dew Point Humidity Pressure Visibility Wind Dir Wind Speed Gust Speed Precip Events Conditions
12:15 AM 82.4 °F 88.2 °F 73.4 °F 74% 29.94 in 10.0 mi SW 4.6 mph - N/A   Clear
12:35 AM 82.4 °F 88.2 °F 73.4 °F 74% 29.94 in 10.0 mi SW 4.6 mph - N/A   Clear
12:55 AM 82.4 °F 88.2 °F 73.4 °F 74% 29.93 in 10.0 mi SSW 5.8 mph - N/A   Clear
1:15 AM 82.4 °F 88.2 °F 73.4 °F 74% 29.94 in 10.0 mi Calm Calm - N/A   Clear
1:35 AM 82.4 °F 88.2 °F 73.4 °F 74% 29.94 in 10.0 mi WSW 5.8 mph - N/A   Clear
1:55 AM 80.6 °F 85.4 °F 73.4 °F 79% 29.94 in 10.0 mi SW 3.5 mph - N/A   Clear
2:15 AM 80.6 °F 85.4 °F 73.4 °F 79% 29.93 in 10.0 mi WSW 3.5 mph - N/A   Clear
2:35 AM 80.6 °F 85.4 °F 73.4 °F 79% 29.93 in 10.0 mi SW 3.5 mph - N/A   Clear
2:55 AM 80.6 °F 85.4 °F 73.4 °F 79% 29.93 in 10.0 mi Calm Calm - N/A   Clear
3:15 AM 80.6 °F 85.4 °F 73.4 °F 79% 29.93 in 10.0 mi Calm Calm - N/A   Clear
3:35 AM 80.6 °F 85.4 °F 73.4 °F 79% 29.94 in 10.0 mi Calm Calm - N/A   Clear
3:55 AM 80.6 °F 85.4 °F 73.4 °F 79% 29.94 in 10.0 mi SSW 3.5 mph - N/A   Clear
4:15 AM 80.6 °F 85.4 °F 73.4 °F 79% 29.94 in 10.0 mi Calm Calm - N/A   Clear
4:35 AM 80.6 °F 85.4 °F 73.4 °F 79% 29.94 in 10.0 mi Calm Calm - N/A   Clear
4:55 AM 80.6 °F 85.4 °F 73.4 °F 79% 29.95 in 10.0 mi Calm Calm - N/A   Clear
5:15 AM 80.6 °F 85.4 °F 73.4 °F 79% 29.95 in 10.0 mi Calm Calm - N/A   Partly Cloudy
5:35 AM 80.6 °F 85.4 °F 73.4 °F 79% 29.95 in 10.0 mi Calm Calm - N/A   Partly Cloudy
5:55 AM 80.6 °F 85.4 °F 73.4 °F 79% 29.95 in 10.0 mi Calm Calm - N/A   Clear
6:15 AM 80.6 °F 85.4 °F 73.4 °F 79% 29.96 in 10.0 mi Calm Calm - N/A   Clear
6:35 AM 80.6 °F 85.4 °F 73.4 °F 79% 29.96 in 10.0 mi West 3.5 mph - N/A   Clear
6:55 AM 80.6 °F 85.4 °F 73.4 °F 79% 29.97 in 10.0 mi WNW 4.6 mph - N/A   Clear
7:15 AM 80.6 °F 85.4 °F 73.4 °F 79% 29.98 in 10.0 mi Calm Calm - N/A   Clear
7:35 AM 80.6 °F 85.4 °F 73.4 °F 79% 29.98 in 10.0 mi Calm Calm - N/A   Clear
7:55 AM 82.4 °F 88.2 °F 73.4 °F 74% 29.99 in 10.0 mi West 4.6 mph - N/A   Clear
8:15 AM 82.4 °F 88.2 °F 73.4 °F 74% 29.98 in 10.0 mi WNW 5.8 mph - N/A   Clear
8:35 AM 84.2 °F 92.3 °F 75.2 °F 74% 29.98 in 10.0 mi NW 4.6 mph - N/A   Partly Cloudy
8:55 AM 84.2 °F 90.9 °F 73.4 °F 70% 29.99 in 7.0 mi NW 6.9 mph - N/A   Scattered Clouds
9:15 AM 84.2 °F 92.3 °F 75.2 °F 74% 29.99 in 9.0 mi NW 6.9 mph - N/A   Partly Cloudy
9:35 AM 84.2 °F 92.3 °F 75.2 °F 74% 30.00 in 10.0 mi North 3.5 mph - N/A   Scattered Clouds
9:55 AM 84.2 °F 90.9 °F 73.4 °F 70% 30.00 in 10.0 mi NW 4.6 mph - N/A   Scattered Clouds
10:15 AM 86.0 °F 93.4 °F 73.4 °F 66% 30.00 in 10.0 mi NW 4.6 mph - N/A   Mostly Cloudy
10:35 AM 86.0 °F 93.4 °F 73.4 °F 66% 30.00 in 10.0 mi NW 3.5 mph - N/A   Scattered Clouds
10:55 AM 87.8 °F 95.6 °F 73.4 °F 62% 30.00 in 10.0 mi NNW 5.8 mph - N/A   Mostly Cloudy
11:15 AM 87.8 °F 95.6 °F 73.4 °F 62% 30.01 in 10.0 mi WNW 4.6 mph - N/A   Scattered Clouds
11:35 AM 89.6 °F 98.2 °F 73.4 °F 59% 30.00 in 10.0 mi NNW 4.6 mph - N/A   Scattered Clouds
11:55 AM 89.6 °F 96.2 °F 71.6 °F 55% 30.00 in 10.0 mi North 6.9 mph - N/A   Partly Cloudy
12:15 PM 91.4 °F 98.4 °F 71.6 °F 52% 30.00 in 10.0 mi North 6.9 mph - N/A   Clear
12:35 PM 91.4 °F 98.4 °F 71.6 °F 52% 29.98 in 10.0 mi NW 4.6 mph - N/A   Clear
12:55 PM 93.2 °F 100.5 °F 71.6 °F 49% 29.97 in 10.0 mi SSW 3.5 mph - N/A   Clear
1:15 PM 93.2 °F 100.5 °F 71.6 °F 49% 29.96 in 10.0 mi West 3.5 mph - N/A   Clear
1:35 PM 93.2 °F 100.5 °F 71.6 °F 49% 29.96 in 10.0 mi Calm Calm - N/A   Clear
1:55 PM 93.2 °F 98.8 °F 69.8 °F 46% 29.95 in 10.0 mi NNE 5.8 mph - N/A   Partly Cloudy
2:15 PM 91.4 °F 96.8 °F 69.8 °F 49% 29.94 in 10.0 mi NE 3.5 mph - N/A   Mostly Cloudy
2:35 PM 91.4 °F 98.4 °F 71.6 °F 52% 29.92 in 10.0 mi South 5.8 mph - N/A   Overcast
2:55 PM 93.2 °F 100.5 °F 71.6 °F 49% 29.91 in 10.0 mi South 8.1 mph - N/A   Mostly Cloudy
3:15 PM 93.2 °F 100.5 °F 71.6 °F 49% 29.90 in 10.0 mi SSW 3.5 mph - N/A   Mostly Cloudy
3:35 PM 93.2 °F 100.5 °F 71.6 °F 49% 29.89 in 10.0 mi South 3.5 mph - N/A   Overcast
3:55 PM 91.4 °F 98.4 °F 71.6 °F 52% 29.89 in 10.0 mi Calm Calm - N/A   Overcast
4:15 PM 82.4 °F 88.2 °F 73.4 °F 74% 29.90 in 1.5 mi SSW 13.8 mph 19.6 mph 0.36 in   Overcast
4:35 PM 82.4 °F 88.2 °F 73.4 °F 74% 29.90 in 10.0 mi South 6.9 mph - 0.37 in   Scattered Clouds
4:55 PM 86.0 °F 93.4 °F 73.4 °F 66% 29.90 in 10.0 mi SSE 3.5 mph - 0.37 in   Partly Cloudy
5:15 PM 84.2 °F 90.9 °F 73.4 °F 70% 29.90 in 10.0 mi Calm Calm - N/A   Partly Cloudy
5:35 PM 86.0 °F 93.4 °F 73.4 °F 66% 29.90 in 10.0 mi SSW 3.5 mph - N/A   Clear
5:55 PM 87.8 °F 95.6 °F 73.4 °F 62% 29.92 in 10.0 mi South 3.5 mph - N/A   Scattered Clouds
6:15 PM 87.8 °F 95.6 °F 73.4 °F 62% 29.94 in 10.0 mi South 3.5 mph - N/A   Scattered Clouds
6:35 PM 87.8 °F 95.6 °F 73.4 °F 62% 29.93 in 10.0 mi SSW 4.6 mph - N/A   Scattered Clouds
6:55 PM 84.2 °F 90.9 °F 73.4 °F 70% 29.94 in 10.0 mi SW 3.5 mph - N/A   Partly Cloudy
7:15 PM 84.2 °F 90.9 °F 73.4 °F 70% 29.93 in 10.0 mi South 3.5 mph - N/A   Partly Cloudy
7:35 PM 86.0 °F 95.1 °F 75.2 °F 70% 29.94 in 10.0 mi South 6.9 mph - N/A   Partly Cloudy
7:55 PM 84.2 °F 90.9 °F 73.4 °F 70% 29.95 in 9.0 mi Calm Calm - N/A   Mostly Cloudy
8:15 PM 82.4 °F 88.2 °F 73.4 °F 74% 29.98 in 9.0 mi North 5.8 mph - 0.02 in   Mostly Cloudy
8:35 PM 78.8 °F - 71.6 °F 78% 29.98 in 10.0 mi North 4.6 mph - 0.06 in   Overcast
8:55 PM 78.8 °F - 69.8 °F 74% 29.99 in 10.0 mi North 4.6 mph - 0.06 in   Overcast
9:15 PM 75.2 °F - 66.2 °F 73% 29.98 in 10.0 mi NNW 3.5 mph - 0.01 in   Mostly Cloudy
9:35 PM 78.8 °F - 69.8 °F 74% 29.98 in 10.0 mi South 4.6 mph - 0.01 in   Partly Cloudy
9:55 PM 78.8 °F - 69.8 °F 74% 29.99 in 10.0 mi Calm Calm - 0.01 in   Clear
10:15 PM 78.8 °F - 71.6 °F 78% 29.98 in 10.0 mi SSW 3.5 mph - N/A   Clear
10:35 PM 78.8 °F - 71.6 °F 78% 29.97 in 10.0 mi South 3.5 mph - N/A   Clear
10:55 PM 80.6 °F 85.4 °F 73.4 °F 79% 29.96 in 10.0 mi South 4.6 mph - N/A   Clear
11:15 PM 80.6 °F 85.4 °F 73.4 °F 79% 29.96 in 10.0 mi South 4.6 mph - N/A   Clear
11:35 PM 80.6 °F 85.4 °F 73.4 °F 79% 29.96 in 10.0 mi SSW 3.5 mph - N/A   Clear
11:55 PM 80.6 °F 85.4 °F 73.4 °F 79% 29.96 in 10.0 mi Calm Calm - N/A   Clear